Regional Weather Roundup
Issued by NWS

Home | Current Version | Previous Version | Graphics & Text | Print | Product List | Glossary On
Versions: 1 2 3 4 5 6 7 8 9 10 11 12 13 14 15 16 17 18 19 20 21 22 23 24 25 26 27 28 29 30 31 32 33 34 35 36 37 38 39 40 41 42 43 44 45 46 47 48 49 50
000
ASUS43 KLMK 291110
RWRKY
KENTUCKY REGIONAL WEATHER ROUNDUP
NATIONAL WEATHER SERVICE LOUISVILLE KY
600 AM EST THU JAN 29 2015

NOTE "FAIR" INDICATES FEW OR NO CLOUDS BELOW 12,000 FEET
WITH NO SIGNIFICANT WEATHER AND/OR OBSTRUCTIONS TO VISIBILITY.

KYZ001>023-026-027-061>063-070>075-291200-
WESTERN AND SOUTH CENTRAL KENTUCKY

CITY           SKY/WX    TMP DP  RH WIND       PRES   REMARKS
PADUCAH        CLOUDY    52  36  54 SW14      29.89S
HENDERSON      CLOUDY    50  34  53 S17G26    29.86F
OWENSBORO      CLOUDY    48  35  60 S14       29.90F
HOPKINSVILLE   CLOUDY    51  33  48 S18G25    29.95F
BOWLING GREEN  LGT RAIN  46  31  55 S18G24    30.00F
GLASGOW        LGT RAIN  44  28  54 S8        30.02S
$$

KYZ024-025-028>034-038-045-046-053-291200-
NORTH CENTRAL KENTUCKY

CITY           SKY/WX    TMP DP  RH WIND       PRES   REMARKS
LOUISVILLE/SDF CLOUDY    42  32  67 S15       29.92F
LOUISVILLE/LOU CLOUDY    42  31  64 S9        29.93F
FORT KNOX      CLOUDY    42  30  63 S16       29.91F
$$

KYZ035>037-039>044-047>052-055>060-089>105-291200-
NORTHEAST KENTUCKY

CITY           SKY/WX    TMP DP  RH WIND       PRES   REMARKS
LEXINGTON      LGT RAIN  37  22  54 S17       30.00F WCI  27
COVINGTON      RAIN      35  27  72 S13       29.93F WCI  26
FRANKFORT      RAIN      37  25  61 S9        29.98F WCI  30
$$

KYZ054-064>069-076>088-106>120-291200-
SOUTHEAST KENTUCKY

CITY           SKY/WX    TMP DP  RH WIND       PRES   REMARKS
JACKSON        MOCLDY    34  19  54 SW5       30.05F WCI  30
LONDON         PTCLDY    39  16  39 S7        30.08F WCI  34
SOMERSET       CLOUDY    39  19  45 S5        30.08F
MIDDLESBORO    PTCLDY    35  21  55 SE8       30.16F WCI  29
MONTICELLO     PTSUNNY   45  21  38 S14       30.09S
$$




USA.gov is the U.S. government's official web portal to all federal, state and local government web resources and services.